Year,Month,Day,Hour,Minute,Value (Times are PST for temperature in C)
2018,05,29,00,00,14.80
2018,05,29,00,01,14.70
2018,05,29,00,02,14.70
2018,05,29,00,03,14.70
2018,05,29,00,04,14.70
2018,05,29,00,05,14.70
2018,05,29,00,06,14.70
2018,05,29,00,07,14.60
2018,05,29,00,08,14.60
2018,05,29,00,09,14.60
2018,05,29,00,10,14.60
2018,05,29,00,11,14.60
2018,05,29,00,12,14.60
2018,05,29,00,13,14.60
2018,05,29,00,14,14.60
2018,05,29,00,15,14.60
2018,05,29,00,16,14.60
2018,05,29,00,17,14.60
2018,05,29,00,18,14.60
2018,05,29,00,19,14.60
2018,05,29,00,20,14.60
2018,05,29,00,21,14.60
2018,05,29,00,22,14.60
2018,05,29,00,23,14.60
2018,05,29,00,24,14.60
2018,05,29,00,25,14.60
2018,05,29,00,26,14.60
2018,05,29,00,27,14.50
2018,05,29,00,28,14.50
2018,05,29,00,29,14.50
2018,05,29,00,30,14.50
2018,05,29,00,31,14.50
2018,05,29,00,32,14.50
2018,05,29,00,33,14.50
2018,05,29,00,34,14.50
2018,05,29,00,35,14.50
2018,05,29,00,36,14.40
2018,05,29,00,37,14.40
2018,05,29,00,38,14.40
2018,05,29,00,39,14.40
2018,05,29,00,40,14.40
2018,05,29,00,41,14.40
2018,05,29,00,42,14.40
2018,05,29,00,43,14.40
2018,05,29,00,44,14.40
2018,05,29,00,45,14.40
2018,05,29,00,46,14.40
2018,05,29,00,47,14.40
2018,05,29,00,48,14.40
2018,05,29,00,49,14.40
2018,05,29,00,50,14.40
2018,05,29,00,51,14.40
2018,05,29,00,52,14.40
2018,05,29,00,53,14.40
2018,05,29,00,54,14.40
2018,05,29,00,55,14.40
2018,05,29,00,56,14.40
2018,05,29,00,57,14.40
2018,05,29,00,58,14.40
2018,05,29,00,59,14.40
2018,05,29,01,00,14.40
2018,05,29,01,01,14.40
2018,05,29,01,02,14.40
2018,05,29,01,03,14.40
2018,05,29,01,04,14.40
2018,05,29,01,05,14.40
2018,05,29,01,06,14.40
2018,05,29,01,07,14.40
2018,05,29,01,08,14.30
2018,05,29,01,09,14.30
2018,05,29,01,10,14.30
2018,05,29,01,11,14.30
2018,05,29,01,12,14.30
2018,05,29,01,13,14.30
2018,05,29,01,14,14.30
2018,05,29,01,15,14.30
2018,05,29,01,16,14.30
2018,05,29,01,17,14.30
2018,05,29,01,18,14.30
2018,05,29,01,19,14.30
2018,05,29,01,20,14.30
2018,05,29,01,21,14.20
2018,05,29,01,22,14.20
2018,05,29,01,23,14.20
2018,05,29,01,24,14.20
2018,05,29,01,25,14.20
2018,05,29,01,26,14.20
2018,05,29,01,27,14.20
2018,05,29,01,28,14.20
2018,05,29,01,29,14.10
2018,05,29,01,30,14.10
2018,05,29,01,31,14.10
2018,05,29,01,32,14.10
2018,05,29,01,33,14.10
2018,05,29,01,34,14.10
2018,05,29,01,35,14.10
2018,05,29,01,36,14.10
2018,05,29,01,37,14.00
2018,05,29,01,38,14.00
2018,05,29,01,39,14.00
2018,05,29,01,40,13.90
2018,05,29,01,41,13.90
2018,05,29,01,42,13.90
2018,05,29,01,43,13.90
2018,05,29,01,44,13.80
2018,05,29,01,45,13.80
2018,05,29,01,46,13.80
2018,05,29,01,47,13.80
2018,05,29,01,48,13.80
2018,05,29,01,49,13.70
2018,05,29,01,50,13.70
2018,05,29,01,51,13.70
2018,05,29,01,52,13.70
2018,05,29,01,53,13.70
2018,05,29,01,54,13.70
2018,05,29,01,55,13.60
2018,05,29,01,56,13.60
2018,05,29,01,57,13.60
2018,05,29,01,58,13.60
2018,05,29,01,59,13.60
2018,05,29,02,00,13.50
2018,05,29,02,01,13.50
2018,05,29,02,02,13.50
2018,05,29,02,03,13.40
2018,05,29,02,04,13.40
2018,05,29,02,05,13.40
2018,05,29,02,06,13.30
2018,05,29,02,07,13.30
2018,05,29,02,08,13.30
2018,05,29,02,09,13.30
2018,05,29,02,10,13.30
2018,05,29,02,11,13.20
2018,05,29,02,12,13.20
2018,05,29,02,13,13.20
2018,05,29,02,14,13.10
2018,05,29,02,15,13.10
2018,05,29,02,16,13.00
2018,05,29,02,17,12.90
2018,05,29,02,18,12.90
2018,05,29,02,19,12.90
2018,05,29,02,20,12.80
2018,05,29,02,21,12.80
2018,05,29,02,22,12.70
2018,05,29,02,23,12.70
2018,05,29,02,24,12.60
2018,05,29,02,25,12.60
2018,05,29,02,26,12.50
2018,05,29,02,27,12.50
2018,05,29,02,28,12.40
2018,05,29,02,29,12.40
2018,05,29,02,30,12.30
2018,05,29,02,31,12.30
2018,05,29,02,32,12.20
2018,05,29,02,33,12.20
2018,05,29,02,34,12.20
2018,05,29,02,35,12.10
2018,05,29,02,36,12.10
2018,05,29,02,37,12.10
2018,05,29,02,38,12.00
2018,05,29,02,39,12.00
2018,05,29,02,40,12.00
2018,05,29,02,41,11.90
2018,05,29,02,42,11.90
2018,05,29,02,43,11.90
2018,05,29,02,44,11.90
2018,05,29,02,45,11.80
2018,05,29,02,46,11.80
2018,05,29,02,47,11.70
2018,05,29,02,48,11.70
2018,05,29,02,49,11.60
2018,05,29,02,50,11.60
2018,05,29,02,51,11.50
2018,05,29,02,52,11.50
2018,05,29,02,53,11.40
2018,05,29,02,54,11.40
2018,05,29,02,55,11.40
2018,05,29,02,56,11.40
2018,05,29,02,57,11.40
2018,05,29,02,58,11.30
2018,05,29,02,59,11.30
2018,05,29,03,00,11.30
2018,05,29,03,01,11.30
2018,05,29,03,02,11.30
2018,05,29,03,03,11.30
2018,05,29,03,04,11.20
2018,05,29,03,05,11.20
2018,05,29,03,06,11.20
2018,05,29,03,07,11.20
2018,05,29,03,08,11.20
2018,05,29,03,09,11.10
2018,05,29,03,10,11.10
2018,05,29,03,11,11.10
2018,05,29,03,12,11.10
2018,05,29,03,13,11.00
2018,05,29,03,14,11.00
2018,05,29,03,15,10.90
2018,05,29,03,16,10.90
2018,05,29,03,17,10.80
2018,05,29,03,18,10.80
2018,05,29,03,19,10.80
2018,05,29,03,20,10.70
2018,05,29,03,21,10.70
2018,05,29,03,22,10.70
2018,05,29,03,23,10.70
2018,05,29,03,24,10.60
2018,05,29,03,25,10.60
2018,05,29,03,26,10.60
2018,05,29,03,27,10.60
2018,05,29,03,28,10.60
2018,05,29,03,29,10.50
2018,05,29,03,30,10.50
2018,05,29,03,31,10.50
2018,05,29,03,32,10.50
2018,05,29,03,33,10.40
2018,05,29,03,34,10.40
2018,05,29,03,35,10.40
2018,05,29,03,36,10.40
2018,05,29,03,37,10.30
2018,05,29,03,38,10.30
2018,05,29,03,39,10.30
2018,05,29,03,40,10.30
2018,05,29,03,41,10.20
2018,05,29,03,42,10.20
2018,05,29,03,43,10.20
2018,05,29,03,44,10.20
2018,05,29,03,45,10.10
2018,05,29,03,46,10.10
2018,05,29,03,47,10.10
2018,05,29,03,48,10.10
2018,05,29,03,49,10.10
2018,05,29,03,50,10.00
2018,05,29,03,51,10.00
2018,05,29,03,52,10.00
2018,05,29,03,53,9.90
2018,05,29,03,54,9.90
2018,05,29,03,55,9.90
2018,05,29,03,56,9.90
2018,05,29,03,57,9.80
2018,05,29,03,58,9.80
2018,05,29,03,59,9.80
2018,05,29,04,00,9.70
2018,05,29,04,01,9.70
2018,05,29,04,02,9.70
2018,05,29,04,03,9.70
2018,05,29,04,04,9.70
2018,05,29,04,05,9.70
2018,05,29,04,06,9.60
2018,05,29,04,07,9.60
2018,05,29,04,08,9.60
2018,05,29,04,09,9.60
2018,05,29,04,10,9.60
2018,05,29,04,11,9.60
2018,05,29,04,12,9.50
2018,05,29,04,13,9.50
2018,05,29,04,14,9.50
2018,05,29,04,15,9.40
2018,05,29,04,16,9.40
2018,05,29,04,17,9.40
2018,05,29,04,18,9.40
2018,05,29,04,19,9.40
2018,05,29,04,20,9.30
2018,05,29,04,21,9.30
2018,05,29,04,22,9.30
2018,05,29,04,23,9.30
2018,05,29,04,24,9.30
2018,05,29,04,25,9.30
2018,05,29,04,26,9.30
2018,05,29,04,27,9.30
2018,05,29,04,28,9.30
2018,05,29,04,29,9.30
2018,05,29,04,30,9.30
2018,05,29,04,31,9.30
2018,05,29,04,32,9.30
2018,05,29,04,33,9.30
2018,05,29,04,34,9.30
2018,05,29,04,35,9.30
2018,05,29,04,36,9.30
2018,05,29,04,37,9.30
2018,05,29,04,38,9.30
2018,05,29,04,39,9.30
2018,05,29,04,40,9.30
2018,05,29,04,41,9.30
2018,05,29,04,42,9.30
2018,05,29,04,43,9.30
2018,05,29,04,44,9.30
2018,05,29,04,45,9.30
2018,05,29,04,46,9.30
2018,05,29,04,47,9.30
2018,05,29,04,48,9.30
2018,05,29,04,49,9.30
2018,05,29,04,50,9.30
2018,05,29,04,51,9.30
2018,05,29,04,52,9.30
2018,05,29,04,53,9.30
2018,05,29,04,54,9.30
2018,05,29,04,55,9.30
2018,05,29,04,56,9.30
2018,05,29,04,57,9.30
2018,05,29,04,58,9.30
2018,05,29,04,59,9.20
2018,05,29,05,00,9.20
2018,05,29,05,01,9.20
2018,05,29,05,02,9.20
2018,05,29,05,03,9.20
2018,05,29,05,04,9.20
2018,05,29,05,05,9.20
2018,05,29,05,06,9.20
2018,05,29,05,07,9.20
2018,05,29,05,08,9.20
2018,05,29,05,09,9.10
2018,05,29,05,10,9.10
2018,05,29,05,11,9.10
2018,05,29,05,12,9.10
2018,05,29,05,13,9.10
2018,05,29,05,14,9.10
2018,05,29,05,15,9.10
2018,05,29,05,16,9.10
2018,05,29,05,17,9.10
2018,05,29,05,18,9.10
2018,05,29,05,19,9.10
2018,05,29,05,20,9.10
2018,05,29,05,21,9.00
2018,05,29,05,22,9.00
2018,05,29,05,23,8.90
2018,05,29,05,24,8.90
2018,05,29,05,25,8.90
2018,05,29,05,26,8.90
2018,05,29,05,27,8.80
2018,05,29,05,28,8.80
2018,05,29,05,29,8.80
2018,05,29,05,30,8.80
2018,05,29,05,31,8.80
2018,05,29,05,32,8.80
2018,05,29,05,33,8.70
2018,05,29,05,34,8.70
2018,05,29,05,35,8.70
2018,05,29,05,36,8.70
2018,05,29,05,37,8.70
2018,05,29,05,38,8.70
2018,05,29,05,39,8.70
2018,05,29,05,40,8.60
2018,05,29,05,41,8.60
2018,05,29,05,42,8.60
2018,05,29,05,43,8.60
2018,05,29,05,44,8.60
2018,05,29,05,45,8.50
2018,05,29,05,46,8.50
2018,05,29,05,47,8.50
2018,05,29,05,48,8.50
2018,05,29,05,49,8.40
2018,05,29,05,50,8.40
2018,05,29,05,51,8.40
2018,05,29,05,52,8.40
2018,05,29,05,53,8.40
2018,05,29,05,54,8.40
2018,05,29,05,55,8.40
2018,05,29,05,56,8.40
2018,05,29,05,57,8.40
2018,05,29,05,58,8.30
2018,05,29,05,59,8.30
2018,05,29,06,00,8.30
2018,05,29,06,01,8.30
2018,05,29,06,02,8.30
2018,05,29,06,03,8.30
2018,05,29,06,04,8.30
2018,05,29,06,05,8.30
2018,05,29,06,06,8.30
2018,05,29,06,07,8.30
2018,05,29,06,08,8.30
2018,05,29,06,09,8.30
2018,05,29,06,10,8.30
2018,05,29,06,11,8.30
2018,05,29,06,12,8.30
2018,05,29,06,13,8.30
2018,05,29,06,14,8.30
2018,05,29,06,15,8.30
2018,05,29,06,16,8.30
2018,05,29,06,17,8.30
2018,05,29,06,18,8.30
2018,05,29,06,19,8.30
2018,05,29,06,20,8.30
2018,05,29,06,21,8.30
2018,05,29,06,22,8.30
2018,05,29,06,23,8.30
2018,05,29,06,24,8.30
2018,05,29,06,25,8.30
2018,05,29,06,26,8.40
2018,05,29,06,27,8.40
2018,05,29,06,28,8.40
2018,05,29,06,29,8.40
2018,05,29,06,30,8.40
2018,05,29,06,31,8.40
2018,05,29,06,32,8.50
2018,05,29,06,33,8.50
2018,05,29,06,34,8.50
2018,05,29,06,35,8.60
2018,05,29,06,36,8.60
2018,05,29,06,37,8.60
2018,05,29,06,38,8.60
2018,05,29,06,39,8.70
2018,05,29,06,40,8.70
2018,05,29,06,41,8.70
2018,05,29,06,42,8.70
2018,05,29,06,43,8.70
2018,05,29,06,44,8.80
2018,05,29,06,45,8.80
2018,05,29,06,46,8.80
2018,05,29,06,47,8.90
2018,05,29,06,48,8.90
2018,05,29,06,49,9.00
2018,05,29,06,50,9.00
2018,05,29,06,51,9.10
2018,05,29,06,52,9.10
2018,05,29,06,53,9.20
2018,05,29,06,54,9.20
2018,05,29,06,55,9.20
2018,05,29,06,56,9.30
2018,05,29,06,57,9.40
2018,05,29,06,58,9.40
2018,05,29,06,59,9.50
2018,05,29,07,00,9.60
2018,05,29,07,01,9.60
2018,05,29,07,02,9.70
2018,05,29,07,03,9.80
2018,05,29,07,04,9.80
2018,05,29,07,05,9.90
2018,05,29,07,06,9.90
2018,05,29,07,07,10.00
2018,05,29,07,08,10.10
2018,05,29,07,09,10.10
2018,05,29,07,10,10.20
2018,05,29,07,11,10.30
2018,05,29,07,12,10.30
2018,05,29,07,13,10.40
2018,05,29,07,14,10.40
2018,05,29,07,15,10.50
2018,05,29,07,16,10.60
2018,05,29,07,17,10.60
2018,05,29,07,18,10.70
2018,05,29,07,19,10.70
2018,05,29,07,20,10.80
2018,05,29,07,21,10.90
2018,05,29,07,22,10.90
2018,05,29,07,23,11.00
2018,05,29,07,24,11.00
2018,05,29,07,25,11.10
2018,05,29,07,26,11.10
2018,05,29,07,27,11.20
2018,05,29,07,28,11.20
2018,05,29,07,29,11.30
2018,05,29,07,30,11.30
2018,05,29,07,31,11.30
2018,05,29,07,32,11.40
2018,05,29,07,33,11.40
2018,05,29,07,34,11.50
2018,05,29,07,35,11.60
2018,05,29,07,36,11.60
2018,05,29,07,37,11.70
2018,05,29,07,38,11.70
2018,05,29,07,39,11.80
2018,05,29,07,40,11.80
2018,05,29,07,41,11.90
2018,05,29,07,42,11.90
2018,05,29,07,43,12.00
2018,05,29,07,44,12.10
2018,05,29,07,45,12.10
2018,05,29,07,46,12.20
2018,05,29,07,47,12.20
2018,05,29,07,48,12.30
2018,05,29,07,49,12.30
2018,05,29,07,50,12.30
2018,05,29,07,51,12.40
2018,05,29,07,52,12.40
2018,05,29,07,53,12.40
2018,05,29,07,54,12.50
2018,05,29,07,55,12.50
2018,05,29,07,56,12.60
2018,05,29,07,57,12.60
2018,05,29,07,58,12.70
2018,05,29,07,59,12.70
2018,05,29,08,00,12.70
2018,05,29,08,01,12.70
2018,05,29,08,02,12.70
2018,05,29,08,03,12.70
2018,05,29,08,04,12.70
2018,05,29,08,05,12.70
2018,05,29,08,06,12.60
2018,05,29,08,07,12.60
2018,05,29,08,08,12.60
2018,05,29,08,09,12.60
2018,05,29,08,10,12.60
2018,05,29,08,11,12.60
2018,05,29,08,12,12.60
2018,05,29,08,13,12.60
2018,05,29,08,14,12.60
2018,05,29,08,15,12.60
2018,05,29,08,16,12.60
2018,05,29,08,17,12.60
2018,05,29,08,18,12.60
2018,05,29,08,19,12.60
2018,05,29,08,20,12.60
2018,05,29,08,21,12.60
2018,05,29,08,22,12.70
2018,05,29,08,23,12.70
2018,05,29,08,24,12.80
2018,05,29,08,25,12.90
2018,05,29,08,26,13.00
2018,05,29,08,27,13.10
2018,05,29,08,28,13.10
2018,05,29,08,29,13.10
2018,05,29,08,30,13.10
2018,05,29,08,31,13.10
2018,05,29,08,32,13.10
2018,05,29,08,33,13.20
2018,05,29,08,34,13.20
2018,05,29,08,35,13.20
2018,05,29,08,36,13.20
2018,05,29,08,37,13.20
2018,05,29,08,38,13.20
2018,05,29,08,39,13.20
2018,05,29,08,40,13.20
2018,05,29,08,41,13.30
2018,05,29,08,42,13.30
2018,05,29,08,43,13.40
2018,05,29,08,44,13.40
2018,05,29,08,45,13.40
2018,05,29,08,46,13.40
2018,05,29,08,47,13.40
2018,05,29,08,48,13.40
2018,05,29,08,49,13.40
2018,05,29,08,50,13.30
2018,05,29,08,51,13.30
2018,05,29,08,52,13.30
2018,05,29,08,53,13.30
2018,05,29,08,54,13.30
2018,05,29,08,55,13.30
2018,05,29,08,56,13.30
2018,05,29,08,57,13.30
2018,05,29,08,58,13.20
2018,05,29,08,59,13.20
2018,05,29,09,00,13.20
2018,05,29,09,01,13.20
2018,05,29,09,02,13.20
2018,05,29,09,03,13.20
2018,05,29,09,04,13.20
2018,05,29,09,05,13.30
2018,05,29,09,06,13.30
2018,05,29,09,07,13.30
2018,05,29,09,08,13.30
2018,05,29,09,09,13.40
2018,05,29,09,10,13.40
2018,05,29,09,11,13.40
2018,05,29,09,12,13.40
2018,05,29,09,13,13.40
2018,05,29,09,14,13.40
2018,05,29,09,15,13.40
2018,05,29,09,16,13.40
2018,05,29,09,17,13.40
2018,05,29,09,18,13.50
2018,05,29,09,19,13.40
2018,05,29,09,20,13.40
2018,05,29,09,21,13.40
2018,05,29,09,22,13.40
2018,05,29,09,23,13.40
2018,05,29,09,24,13.50
2018,05,29,09,25,13.50
2018,05,29,09,26,13.60
2018,05,29,09,27,13.60
2018,05,29,09,28,13.60
2018,05,29,09,29,13.70
2018,05,29,09,30,13.70
2018,05,29,09,31,13.70
2018,05,29,09,32,13.80
2018,05,29,09,33,13.80
2018,05,29,09,34,13.80
2018,05,29,09,35,13.80
2018,05,29,09,36,13.80
2018,05,29,09,37,13.90
2018,05,29,09,38,13.90
2018,05,29,09,39,13.90
2018,05,29,09,40,13.90
2018,05,29,09,41,14.00
2018,05,29,09,42,14.10
2018,05,29,09,43,14.20
2018,05,29,09,44,14.30
2018,05,29,09,45,14.40
2018,05,29,09,46,14.50
2018,05,29,09,47,14.50
2018,05,29,09,48,14.70
2018,05,29,09,49,14.80
2018,05,29,09,50,14.80
2018,05,29,09,51,14.80
2018,05,29,09,52,14.80
2018,05,29,09,53,14.80
2018,05,29,09,54,14.80
2018,05,29,09,55,14.80
2018,05,29,09,56,14.80
2018,05,29,09,57,14.70
2018,05,29,09,58,14.70
2018,05,29,09,59,14.70
2018,05,29,10,00,14.70
2018,05,29,10,01,14.60
2018,05,29,10,02,14.60
2018,05,29,10,03,14.60
2018,05,29,10,04,14.50
2018,05,29,10,05,14.50
2018,05,29,10,06,14.50
2018,05,29,10,07,14.50
2018,05,29,10,08,14.50
2018,05,29,10,09,14.40
2018,05,29,10,10,14.30
2018,05,29,10,11,14.20
2018,05,29,10,12,14.10
2018,05,29,10,13,14.10
2018,05,29,10,14,14.00
2018,05,29,10,15,14.00
2018,05,29,10,16,13.90
2018,05,29,10,17,13.90
2018,05,29,10,18,13.90
2018,05,29,10,19,13.90
2018,05,29,10,20,13.90
2018,05,29,10,21,13.90
2018,05,29,10,22,14.00
2018,05,29,10,23,14.00
2018,05,29,10,24,14.00
2018,05,29,10,25,14.00
2018,05,29,10,26,14.00
2018,05,29,10,27,14.00
2018,05,29,10,28,14.00
2018,05,29,10,29,14.10
2018,05,29,10,30,14.20
2018,05,29,10,31,14.20
2018,05,29,10,32,14.30
2018,05,29,10,33,14.30
2018,05,29,10,34,14.30
2018,05,29,10,35,14.30
2018,05,29,10,36,14.30
2018,05,29,10,37,14.40
2018,05,29,10,38,14.40
2018,05,29,10,39,14.40
2018,05,29,10,40,14.40
2018,05,29,10,41,14.30
2018,05,29,10,42,14.30
2018,05,29,10,43,14.30
2018,05,29,10,44,14.30
2018,05,29,10,45,14.20
2018,05,29,10,46,14.20
2018,05,29,10,47,14.30
2018,05,29,10,48,14.30
2018,05,29,10,49,14.30
2018,05,29,10,50,14.30
2018,05,29,10,51,14.40
2018,05,29,10,52,14.40
2018,05,29,10,53,14.40
2018,05,29,10,54,14.30
2018,05,29,10,55,14.30
2018,05,29,10,56,14.30
2018,05,29,10,57,14.30
2018,05,29,10,58,14.30
2018,05,29,10,59,14.40
2018,05,29,11,00,14.40
2018,05,29,11,01,14.50
2018,05,29,11,02,14.70
2018,05,29,11,03,14.80
2018,05,29,11,04,14.80
2018,05,29,11,05,14.90
2018,05,29,11,06,14.90
2018,05,29,11,07,14.80
2018,05,29,11,08,14.80
2018,05,29,11,09,14.80
2018,05,29,11,10,14.80
2018,05,29,11,11,14.80
2018,05,29,11,12,14.90
2018,05,29,11,13,15.00
2018,05,29,11,14,15.10
2018,05,29,11,15,15.10
2018,05,29,11,16,15.20
2018,05,29,11,17,15.20
2018,05,29,11,18,15.30
2018,05,29,11,19,15.30
2018,05,29,11,20,15.30
2018,05,29,11,21,15.30
2018,05,29,11,22,15.30
2018,05,29,11,23,15.30
2018,05,29,11,24,15.30
2018,05,29,11,25,15.40
2018,05,29,11,26,15.40
2018,05,29,11,27,15.40
2018,05,29,11,28,15.40
2018,05,29,11,29,15.40
2018,05,29,11,30,15.40
2018,05,29,11,31,15.50
2018,05,29,11,32,15.50
2018,05,29,11,33,15.60
2018,05,29,11,34,15.60
2018,05,29,11,35,15.70
2018,05,29,11,36,15.70
2018,05,29,11,37,15.80
2018,05,29,11,38,15.80
2018,05,29,11,39,15.90
2018,05,29,11,40,15.90
2018,05,29,11,41,16.00
2018,05,29,11,42,16.00
2018,05,29,11,43,16.10
2018,05,29,11,44,16.10
2018,05,29,11,45,16.20
2018,05,29,11,46,16.20
2018,05,29,11,47,16.30
2018,05,29,11,48,16.40
2018,05,29,11,49,16.40
2018,05,29,11,50,16.40
2018,05,29,11,51,16.40
2018,05,29,11,52,16.40
2018,05,29,11,53,16.40
2018,05,29,11,54,16.40
2018,05,29,11,55,16.40
2018,05,29,11,56,16.30
2018,05,29,11,57,16.10
2018,05,29,11,58,16.00
2018,05,29,11,59,15.80
2018,05,29,12,00,15.70
2018,05,29,12,01,15.60
2018,05,29,12,02,15.50
2018,05,29,12,03,15.40
2018,05,29,12,04,15.40
2018,05,29,12,05,15.40
2018,05,29,12,06,15.40
2018,05,29,12,07,15.40
2018,05,29,12,08,15.50
2018,05,29,12,09,15.60
2018,05,29,12,10,15.60
2018,05,29,12,11,15.70
2018,05,29,12,12,15.80
2018,05,29,12,13,15.80
2018,05,29,12,14,15.90
2018,05,29,12,15,16.00
2018,05,29,12,16,16.10
2018,05,29,12,17,16.10
2018,05,29,12,18,16.20
2018,05,29,12,19,16.10
2018,05,29,12,20,16.00
2018,05,29,12,21,16.00
2018,05,29,12,22,15.90
2018,05,29,12,23,15.80
2018,05,29,12,24,15.80
2018,05,29,12,25,15.70
2018,05,29,12,26,15.80
2018,05,29,12,27,15.80
2018,05,29,12,28,15.80
2018,05,29,12,29,15.80
2018,05,29,12,30,15.90
2018,05,29,12,31,15.90
2018,05,29,12,32,15.80
2018,05,29,12,33,15.80
2018,05,29,12,34,15.70
2018,05,29,12,35,15.80
2018,05,29,12,36,15.80
2018,05,29,12,37,15.80
2018,05,29,12,38,15.80
2018,05,29,12,39,15.70
2018,05,29,12,40,15.70
2018,05,29,12,41,15.70
2018,05,29,12,42,15.70
2018,05,29,12,43,15.60
2018,05,29,12,44,15.60
2018,05,29,12,45,15.50
2018,05,29,12,46,15.50
2018,05,29,12,47,15.50
2018,05,29,12,48,15.50
2018,05,29,12,49,15.40
2018,05,29,12,50,15.40
2018,05,29,12,51,15.50
2018,05,29,12,52,15.50
2018,05,29,12,53,15.60
2018,05,29,12,54,15.60
2018,05,29,12,55,15.60
2018,05,29,12,56,15.60
2018,05,29,12,57,15.60
2018,05,29,12,58,15.60
2018,05,29,12,59,15.60
2018,05,29,13,00,15.70
2018,05,29,13,01,15.70
2018,05,29,13,02,15.70
2018,05,29,13,03,15.80
2018,05,29,13,04,15.80
2018,05,29,13,05,15.70
2018,05,29,13,06,15.70
2018,05,29,13,07,15.70
2018,05,29,13,08,15.70
2018,05,29,13,09,15.80
2018,05,29,13,10,15.90
2018,05,29,13,11,15.90
2018,05,29,13,12,16.00
2018,05,29,13,13,16.10
2018,05,29,13,14,16.10
2018,05,29,13,15,16.10
2018,05,29,13,16,16.10
2018,05,29,13,17,16.10
2018,05,29,13,18,16.10
2018,05,29,13,19,16.10
2018,05,29,13,20,16.20
2018,05,29,13,21,16.20
2018,05,29,13,22,16.20
2018,05,29,13,23,16.30
2018,05,29,13,24,16.40
2018,05,29,13,25,16.40
2018,05,29,13,26,16.50
2018,05,29,13,27,16.50
2018,05,29,13,28,16.50
2018,05,29,13,29,16.60
2018,05,29,13,30,16.60
2018,05,29,13,31,16.60
2018,05,29,13,32,16.60
2018,05,29,13,33,16.60
2018,05,29,13,34,16.50
2018,05,29,13,35,16.40
2018,05,29,13,36,16.30
2018,05,29,13,37,16.10
2018,05,29,13,38,16.00
2018,05,29,13,39,15.90
2018,05,29,13,40,15.80
2018,05,29,13,41,15.80
2018,05,29,13,42,15.80
2018,05,29,13,43,15.80
2018,05,29,13,44,15.70
2018,05,29,13,45,15.70
2018,05,29,13,46,15.70
2018,05,29,13,47,15.60
2018,05,29,13,48,15.60
2018,05,29,13,49,15.60
2018,05,29,13,50,15.60
2018,05,29,13,51,15.60
2018,05,29,13,52,15.70
2018,05,29,13,53,15.70
2018,05,29,13,54,15.80
2018,05,29,13,55,15.90
2018,05,29,13,56,15.90
2018,05,29,13,57,15.90
2018,05,29,13,58,15.80
2018,05,29,13,59,15.80
2018,05,29,14,00,15.70
2018,05,29,14,01,15.60
2018,05,29,14,02,15.50
2018,05,29,14,03,15.50
2018,05,29,14,04,15.40
2018,05,29,14,05,15.40
2018,05,29,14,06,15.40
2018,05,29,14,07,15.40
2018,05,29,14,08,15.50
2018,05,29,14,09,15.50
2018,05,29,14,10,15.50
2018,05,29,14,11,15.50
2018,05,29,14,12,15.50
2018,05,29,14,13,15.50
2018,05,29,14,14,15.40
2018,05,29,14,15,15.40
2018,05,29,14,16,15.40
2018,05,29,14,17,15.40
2018,05,29,14,18,15.30
2018,05,29,14,19,15.30
2018,05,29,14,20,15.30
2018,05,29,14,21,15.30
2018,05,29,14,22,15.30
2018,05,29,14,23,15.30
2018,05,29,14,24,15.40
2018,05,29,14,25,15.40
2018,05,29,14,26,15.40
2018,05,29,14,27,15.40
2018,05,29,14,28,15.30
2018,05,29,14,29,15.30
2018,05,29,14,30,15.30
2018,05,29,14,31,15.30
2018,05,29,14,32,15.30
2018,05,29,14,33,15.30
2018,05,29,14,34,15.30
2018,05,29,14,35,15.30
2018,05,29,14,36,15.40
2018,05,29,14,37,15.40
2018,05,29,14,38,15.40
2018,05,29,14,39,15.40
2018,05,29,14,40,15.40
2018,05,29,14,41,15.40
2018,05,29,14,42,15.40
2018,05,29,14,43,15.40
2018,05,29,14,44,15.40
2018,05,29,14,45,15.40
2018,05,29,14,46,15.40
2018,05,29,14,47,15.40
2018,05,29,14,48,15.50
2018,05,29,14,49,15.50
2018,05,29,14,50,15.60
2018,05,29,14,51,15.60
2018,05,29,14,52,15.60
2018,05,29,14,53,15.70
2018,05,29,14,54,15.80
2018,05,29,14,55,15.80
2018,05,29,14,56,15.80
2018,05,29,14,57,15.90
2018,05,29,14,58,15.90
2018,05,29,14,59,15.90
2018,05,29,15,00,15.90
2018,05,29,15,01,15.90
2018,05,29,15,02,15.90
2018,05,29,15,03,15.90
2018,05,29,15,04,15.90
2018,05,29,15,05,15.90
2018,05,29,15,06,15.90
2018,05,29,15,07,15.90
2018,05,29,15,08,15.90
2018,05,29,15,09,15.90
2018,05,29,15,10,15.90
2018,05,29,15,11,16.00
2018,05,29,15,12,16.10
2018,05,29,15,13,16.10
2018,05,29,15,14,16.20
2018,05,29,15,15,16.20
2018,05,29,15,16,16.20
2018,05,29,15,17,16.30
2018,05,29,15,18,16.30
2018,05,29,15,19,16.30
2018,05,29,15,20,16.30
2018,05,29,15,21,16.30
2018,05,29,15,22,16.30
2018,05,29,15,23,16.30
2018,05,29,15,24,16.30
2018,05,29,15,25,16.20
2018,05,29,15,26,16.20
2018,05,29,15,27,16.10
2018,05,29,15,28,16.10
2018,05,29,15,29,16.10
2018,05,29,15,30,16.10
2018,05,29,15,31,16.20
2018,05,29,15,32,16.20
2018,05,29,15,33,16.20
2018,05,29,15,34,16.20
2018,05,29,15,35,16.20
2018,05,29,15,36,16.20
2018,05,29,15,37,16.20
2018,05,29,15,38,16.20
2018,05,29,15,39,16.20
2018,05,29,15,40,16.20
2018,05,29,15,41,16.20
2018,05,29,15,42,16.30
2018,05,29,15,43,16.30
2018,05,29,15,44,16.30
2018,05,29,15,45,16.40
2018,05,29,15,46,16.40
2018,05,29,15,47,16.40
2018,05,29,15,48,16.40
2018,05,29,15,49,16.40
2018,05,29,15,50,16.50
2018,05,29,15,51,16.50
2018,05,29,15,52,16.50
2018,05,29,15,53,16.50
2018,05,29,15,54,16.50
2018,05,29,15,55,16.50
2018,05,29,15,56,16.50
2018,05,29,15,57,16.60
2018,05,29,15,58,16.60
2018,05,29,15,59,16.60
2018,05,29,16,00,16.70
2018,05,29,16,01,16.80
2018,05,29,16,02,16.80
2018,05,29,16,03,16.80
2018,05,29,16,04,16.90
2018,05,29,16,05,16.90
2018,05,29,16,06,16.90
2018,05,29,16,07,16.90
2018,05,29,16,08,16.80
2018,05,29,16,09,16.80
2018,05,29,16,10,16.80
2018,05,29,16,11,16.80
2018,05,29,16,12,16.80
2018,05,29,16,13,16.80
2018,05,29,16,14,16.80
2018,05,29,16,15,16.90
2018,05,29,16,16,16.90
2018,05,29,16,17,16.90
2018,05,29,16,18,16.90
2018,05,29,16,19,17.00
2018,05,29,16,20,17.00
2018,05,29,16,21,17.10
2018,05,29,16,22,17.10
2018,05,29,16,23,17.10
2018,05,29,16,24,17.10
2018,05,29,16,25,17.20
2018,05,29,16,26,17.20
2018,05,29,16,27,17.30
2018,05,29,16,28,17.40
2018,05,29,16,29,17.50
2018,05,29,16,30,17.60
2018,05,29,16,31,17.60
2018,05,29,16,32,17.70
2018,05,29,16,33,17.70
2018,05,29,16,34,17.70
2018,05,29,16,35,17.80
2018,05,29,16,36,17.80
2018,05,29,16,37,17.80
2018,05,29,16,38,17.80
2018,05,29,16,39,17.80
2018,05,29,16,40,17.80
2018,05,29,16,41,17.70
2018,05,29,16,42,17.70
2018,05,29,16,43,17.70
2018,05,29,16,44,17.60
2018,05,29,16,45,17.50
2018,05,29,16,46,17.50
2018,05,29,16,47,17.40
2018,05,29,16,48,17.40
2018,05,29,16,49,17.40
2018,05,29,16,50,17.30
2018,05,29,16,51,17.30
2018,05,29,16,52,17.30
2018,05,29,16,53,17.20
2018,05,29,16,54,17.20
2018,05,29,16,55,17.10
2018,05,29,16,56,17.00
2018,05,29,16,57,17.00
2018,05,29,16,58,16.90
2018,05,29,16,59,16.90
2018,05,29,17,00,16.80
2018,05,29,17,01,16.80
2018,05,29,17,02,16.80
2018,05,29,17,03,16.80
2018,05,29,17,04,16.80
2018,05,29,17,05,16.90
2018,05,29,17,06,16.90
2018,05,29,17,07,16.90
2018,05,29,17,08,16.90
2018,05,29,17,09,16.90
2018,05,29,17,10,16.90
2018,05,29,17,11,16.90
2018,05,29,17,12,16.90
2018,05,29,17,13,16.90
2018,05,29,17,14,16.90
2018,05,29,17,15,16.90
2018,05,29,17,16,17.00
2018,05,29,17,17,17.00
2018,05,29,17,18,17.00
2018,05,29,17,19,17.00
2018,05,29,17,20,17.00
2018,05,29,17,21,17.00
2018,05,29,17,22,17.00
2018,05,29,17,23,17.00
2018,05,29,17,24,17.00
2018,05,29,17,25,17.00
2018,05,29,17,26,17.00
2018,05,29,17,27,17.00